Location: Gwatt
(46.7204°N, 7.6223°E)
Time: 07:49:30
(UTC+00:00)

Vanguard 3 - Pass Details

Date: 26 January 2021
Orbit: 508 x 3261 km, 33.3° (Epoch: 24 February)

Event Time Altitude Azimuth Distance (km) Brightness Sun altitude
Exits shadow 01:55:24 10° 113° (ESE) 3,311 10.4 -50.9°
Drops below altitude 10° 01:55:32 10° 112° (ESE) 3,347 10.5 -50.9°
Sets 02:00:51 0° 94° (E) 4,955 11.6 -50.1°
